Location: Albany
(35.0000°S, 118.0000°E)
Time: 03:45:30
(UTC-04:00)

Tiangong - Pass Details

Date: 25 June 2021
Orbit: 373 x 386 km, 41.5° (Epoch: 01 August)

Event Time Altitude Azimuth Distance (km) Brightness Sun altitude
Rises 07:06:40 0° 257° (WSW) 2,265 6.0 -24.2°
Reaches altitude 10° 07:09:06 10° 274° (W) 1,402 4.9 -24.6°
Enters shadow 07:11:29 20° 323° (NW) 953 3.5 -25.1°
